This is the latest recevied weather packets stored in our database for station/object N9NDF. If no packets are shown the sender has not sent any weather packets the latest 1 day(s).
| Time | Temp. | Humidity | Pressure | Rain* | Wind** | Luminosity | Snow |
|---|---|---|---|---|---|---|---|
| 1777991914 | 9.44° C | 74% | 988 hPa | 0 mm | 0.89 m/s, 348° | 243 W/m² | - |
| 1777991854 | 9.44° C | 74% | 987.9 hPa | 0 mm | 0.89 m/s, 180° | 213 W/m² | - |
| 1777991794 | 9.44° C | 73% | 987.9 hPa | 0 mm | 0.89 m/s, 297° | 194 W/m² | - |
| 1777991734 | 9.44° C | 73% | 987.8 hPa | 0 mm | 0.89 m/s, 324° | 195 W/m² | - |
| 1777991675 | 9.44° C | 73% | 987.7 hPa | 0 mm | 0.89 m/s, 316° | 205 W/m² | - |
| 1777991608 | 9.44° C | 73% | 987.7 hPa | 0 mm | 0.89 m/s, 42° | 205 W/m² | - |
| 1777991549 | 9.44° C | 73% | 987.7 hPa | 0 mm | 0.89 m/s, 325° | 223 W/m² | - |
| 1777991490 | 9.44° C | 73% | 987.7 hPa | 0 mm | 0.89 m/s, 345° | 262 W/m² | - |
| 1777991431 | 9.44° C | 74% | 987.7 hPa | 0 mm | 0.89 m/s, 28° | 284 W/m² | - |
| 1777991369 | 8.89° C | 74% | 987.7 hPa | 0 mm | 0.89 m/s, 273° | 290 W/m² | - |
| 1777991349 | 8.89° C | 74% | 987.7 hPa | 0 mm | 0.89 m/s, 339° | 307 W/m² | - |
| 1777991255 | 8.89° C | 75% | 987.7 hPa | 0 mm | 0.89 m/s, 344° | 321 W/m² | - |
| 1777991187 | 8.89° C | 76% | 987.7 hPa | 0 mm | 0.89 m/s, 1° | 321 W/m² | - |
| 1777991127 | 8.89° C | 76% | 987.7 hPa | 0 mm | 0.89 m/s, 3° | 315 W/m² | - |
| 1777991067 | 8.89° C | 78% | 987.7 hPa | 0 mm | 0.89 m/s, 347° | 308 W/m² | - |
| 1777991007 | 8.89° C | 77% | 987.6 hPa | 0 mm | 0.89 m/s, 344° | 282 W/m² | - |
| 1777990947 | 8.89° C | 77% | 987.6 hPa | 0 mm | 0.89 m/s, 332° | 249 W/m² | - |
| 1777990886 | 8.89° C | 76% | 987.6 hPa | 0 mm | 0.89 m/s, 345° | 230 W/m² | - |
| 1777990830 | 8.89° C | 78% | 987.6 hPa | 0 mm | 0.89 m/s, 328° | 201 W/m² | - |
| 1777990767 | 8.89° C | 78% | 987.7 hPa | 0 mm | 0.89 m/s, 300° | 184 W/m² | - |
| 1777990748 | 8.89° C | 78% | 987.7 hPa | 0 mm | 0.89 m/s, 10° | 167 W/m² | - |
| 1777990648 | 8.89° C | 77% | 987.8 hPa | 0 mm | 0.89 m/s, 10° | 160 W/m² | - |
| 1777990588 | 8.89° C | 77% | 987.8 hPa | 0 mm | 0.89 m/s, 357° | 158 W/m² | - |
| 1777990528 | 8.89° C | 78% | 987.9 hPa | 0 mm | 0.89 m/s, 293° | 158 W/m² | - |
| 1777990473 | 8.89° C | 78% | 987.9 hPa | 0 mm | 0.89 m/s, 352° | 159 W/m² | - |
* Rain latest hour (hover to see other rain measurements)
** Current wind speed in m/s (hover to see current wind gust speed)